This demonstration page uses our WeatherBlox Daily Observations layout. Learn more.

Left ArrowRight Arrow

40.92945, -100.16068

Hourly Observations for June 30, 2022

Temp ( °F °C ) Dew Point ( °F °C ) Humidity (%) Winds ( mph kmh ) Pressure ( in mb ) Visibility ( mi km ) Precip ( " mm )
12:15 am 00:15 Clear 81 27 55 12.8 41 41 S 25 41 29.80 1009 10 16 0.00 0.00
12:35 am 00:35 Clear 80 26.6 55 12.5 42 42 S 25 41 29.81 1009 7 11 0.00 0.00
12:55 am 00:55 Clear 79 26.3 54 12.3 42 42 SSW 21 33 29.82 1010 10 16 0.00 0.00
1:15 am 01:15 Clear 78 25.8 54 12.2 43 43 S 18 30 29.82 1010 10 16 0.00 0.00
1:35 am 01:35 Clear 78 25.7 54 12.2 43 43 SSW 16 26 29.83 1010 10 16 0.00 0.00
1:55 am 01:55 Clear 78 25.8 55 12.7 44 44 SW 18 30 29.87 1012 10 16 0.00 0.00
2:15 am 02:15 Clear 78 25.7 55 13 45 45 S 17 28 29.83 1010 10 16 0.00 0.00
2:35 am 02:35 Clear 78 25.5 56 13.2 47 47 S 18 30 29.83 1010 10 16 0.00 0.00
2:55 am 02:55 Clear 77 25 56 13.2 48 48 S 18 30 29.82 1010 10 16 0.00 0.00
3:15 am 03:15 Clear 77 25.1 56 13.5 49 49 SSW 17 28 29.82 1010 10 16 0.00 0.00
3:35 am 03:35 Clear 77 25 56 13.5 49 49 S 15 24 29.82 1010 10 16 0.00 0.00
3:55 am 03:55 Clear 76 24.7 56 13.4 49 49 S 17 28 29.80 1009 10 16 0.00 0.00
4:15 am 04:15 Clear 76 24.5 56 13.5 50 50 S 16 26 29.80 1009 10 16 0.00 0.00
4:35 am 04:35 Clear 75 24 56 13.5 52 52 S 12 19 29.80 1009 10 16 0.00 0.00
4:55 am 04:55 Clear 74 23.5 56 13.5 54 54 S 13 20 29.80 1009 10 16 0.00 0.00
5:15 am 05:15 Clear 74 23.6 56 13.3 53 53 S 14 22 29.80 1009 10 16 0.00 0.00
5:35 am 05:35 Clear 75 23.7 56 13.2 52 52 SSW 12 19 29.81 1010 10 16 0.00 0.00
5:55 am 05:55 Clear 74 23.3 56 13.1 53 53 SSW 13 20 29.81 1010 10 16 0.00 0.00
6:15 am 06:15 Sunny 73 22.9 56 13.1 54 54 S 13 20 29.82 1010 10 16 0.00 0.00
6:35 am 06:35 Sunny 72 22.1 56 13.3 58 58 S 13 20 29.82 1010 10 16 0.00 0.00
6:55 am 06:55 Sunny 71 21.7 56 13.5 60 60 S 9 15 29.83 1010 10 16 0.00 0.00
7:15 am 07:15 Sunny 72 22.1 56 13.6 59 59 S 10 17 29.82 1010 10 16 0.00 0.00
7:35 am 07:35 Sunny 71 21.8 57 14 61 61 S 8 13 29.83 1010 10 16 0.00 0.00
7:55 am 07:55 Sunny 72 22 57 14.1 61 61 Calm 29.84 1010 10 16 0.00 0.00
8:15 am 08:15 Sunny 73 22.9 58 14.3 58 58 SSW 5 7 29.82 1010 10 16 0.00 0.00
8:35 am 08:35 Sunny 75 24 58 14.7 56 56 SW 6 9 29.82 1010 10 16 0.00 0.00
8:55 am 08:55 Sunny 78 25.3 59 15 53 53 SW 6 9 29.81 1009 10 16 0.00 0.00
9:15 am 09:15 Sunny 78 25.6 60 15.4 53 53 SSW 5 7 29.80 1009 10 16 0.00 0.00
9:35 am 09:35 Sunny 80 26.7 60 15.7 51 51 SSW 6 9 29.78 1008 10 16 0.00 0.00
9:55 am 09:55 Sunny 81 27.2 60 15.7 49 49 SW 6 9 29.78 1009 10 16 0.00 0.00
10:15 am 10:15 Sunny 83 28.5 60 15.6 46 46 WSW 6 9 29.77 1008 10 16 0.00 0.00
10:35 am 10:35 Sunny 83 28.5 60 15.5 45 45 WSW 5 7 29.77 1008 10 16 0.00 0.00
10:55 am 10:55 Sunny 85 29.4 60 15.6 43 43 W 3 6 29.75 1008 10 16 0.00 0.00
11:15 am 11:15 Sunny 87 30.4 60 15.6 41 41 W 7 11 29.76 1008 10 16 0.00 0.00
11:35 am 11:35 Sunny 87 30.8 61 16.2 41 41 WNW 7 11 29.74 1007 10 16 0.00 0.00
11:55 am 11:55 Sunny 87 30.5 61 16 42 42 NW 9 15 29.75 1007 10 16 0.00 0.00
12:15 pm 12:15 Sunny 87 30.4 60 15.7 41 41 NW 8 13 29.75 1007 10 16 0.00 0.00
12:35 pm 12:35 Sunny 89 31.9 60 15.8 38 38 NNW 9 15 29.73 1007 10 16 0.00 0.00
12:55 pm 12:55 Sunny 90 32.1 59 15.1 36 36 N 10 17 29.73 1007 10 16 0.00 0.00
1:15 pm 13:15 Sunny 90 32.4 59 14.9 35 35 NW 6 9 29.73 1007 10 16 0.00 0.00
1:35 pm 13:35 Sunny 89 31.5 59 15.2 37 37 NNW 6 9 29.74 1007 10 16 0.00 0.00
1:55 pm 13:55 Sunny 90 32.1 58 14.7 35 35 NNW 6 9 29.73 1007 10 16 0.00 0.00
2:15 pm 14:15 Sunny 90 32.1 58 14.7 35 35 NW 7 11 29.73 1007 10 16 0.00 0.00
2:35 pm 14:35 Sunny 88 31.2 61 16.3 41 41 W 5 7 29.74 1007 10 16 0.00 0.00
2:55 pm 14:55 Sunny 90 32 60 15.6 37 37 W 7 11 29.73 1007 10 16 0.00 0.00
3:15 pm 15:15 Sunny 91 33 56 13.3 30 30 NW 8 13 29.73 1007 10 16 0.00 0.00
3:35 pm 15:35 Sunny 93 33.8 56 13.4 29 29 NNW 9 15 29.72 1006 10 16 0.00 0.00
3:55 pm 15:55 Sunny 93 34.1 56 13.2 28 28 NNW 6 9 29.72 1006 10 16 0.00 0.00
4:15 pm 16:15 Sunny 92 33.1 56 13.6 31 31 NNW 3 6 29.73 1007 10 16 0.00 0.00
4:35 pm 16:35 Sunny 93 34.1 59 15 32 32 WNW 7 11 29.72 1006 10 16 0.00 0.00
4:55 pm 16:55 Sunny 93 33.7 56 13.1 29 29 NW 5 7 29.71 1006 10 16 0.00 0.00
5:15 pm 17:15 Sunny 93 34.1 59 14.9 31 31 W 5 7 29.71 1006 10 16 0.00 0.00
5:35 pm 17:35 Sunny 92 33.2 62 16.4 36 36 N 5 7 29.72 1007 10 16 0.00 0.00
5:55 pm 17:55 Sunny 92 33.6 62 16.6 36 36 NE 5 7 29.71 1006 10 16 0.00 0.00
6:15 pm 18:15 Sunny 93 34.1 59 15.2 32 32 NE 7 11 29.71 1006 10 16 0.00 0.00
6:35 pm 18:35 Sunny 92 33.6 60 15.6 34 34 NNE 10 17 29.71 1006 10 16 0.00 0.00
6:55 pm 18:55 Sunny 90 32 59 15.2 36 36 NE 10 17 29.72 1007 10 16 0.00 0.00
7:15 pm 19:15 Sunny 90 32 60 15.3 36 36 NNE 14 22 29.72 1007 10 16 0.00 0.00
7:35 pm 19:35 Sunny 89 31.4 59 14.8 37 37 NE 18 30 29.74 1007 10 16 0.00 0.00
7:55 pm 19:55 Sunny 86 30 58 14.7 39 39 NE 17 28 29.76 1008 10 16 0.00 0.00
8:15 pm 20:15 Sunny 84 29.1 58 14.7 41 41 NE 16 26 29.78 1008 10 16 0.00 0.00
8:35 pm 20:35 Sunny 84 29 58 14.6 41 41 NE 15 24 29.79 1009 10 16 0.00 0.00
8:55 pm 20:55 Sunny 83 28.2 59 15.2 45 45 NE 15 24 29.79 1009 10 16 0.00 0.00
9:15 pm 21:15 Clear 82 27.5 60 15.4 48 48 NE 14 22 29.81 1009 10 16 0.00 0.00
9:35 pm 21:35 Clear 80 26.7 58 14.4 47 47 NE 15 24 29.83 1010 10 16 0.00 0.00
9:55 pm 21:55 Clear 80 26.5 58 14.5 48 48 NNE 10 17 29.84 1010 10 16 0.00 0.00
10:15 pm 22:15 Clear 79 26.1 58 14.7 50 50 NE 13 20 29.85 1011 10 16 0.00 0.00
10:35 pm 22:35 Clear 79 26 59 15 51 51 ENE 12 19 29.86 1011 10 16 0.00 0.00
10:55 pm 22:55 Clear 78 25.8 59 15.2 52 52 ENE 12 19 29.87 1012 10 16 0.00 0.00
11:15 pm 23:15 Clear 77 25.1 60 15.5 55 55 NNE 9 15 29.90 1012 7 11 0.00 0.00
11:35 pm 23:35 Clear 77 25 60 15.5 56 56 ENE 3 6 29.93 1014 10 16 0.00 0.00
11:55 pm 23:55 Partly Cloudy 75 24.1 61 15.9 60 60 E 3 6 29.94 1014 10 16 0.00 0.00

Powered by AerisWeather